START_TIME,STEP,MOV.,M34,t_acc.,L5,t_acc.,L18,t_acc.,L14,t_acc.
1980-11-14 21:00:13.280 ,5,0,0.,12.0,0.,12.0,0.,12.0,0.,12.0
1980-11-14 21:00:25.280 ,5,0,0.,12.0,0.,12.0,0.,12.0,0.,12.0
1980-11-14 21:00:37.280 ,4,1,0.,12.0,0.,12.0,0.,12.0,0.,12.0
1980-11-14 21:00:49.280 ,4,1,0.,12.0,0.,12.0,0.,12.0,0.,12.0
1980-11-14 21:01:01.280 ,4,0,0.,12.0,0.,12.0,0.,12.0,0.,12.0
1980-11-14 21:01:13.280 ,4,0,0.,12.0,0.,12.0,0.,12.0,0.,12.0
1980-11-14 21:01:25.280 ,3,1,0.,12.0,0.,12.0,0.,12.0,0.,12.0
1980-11-14 21:01:37.280 ,3,1,0.,12.0,0.,12.0,0.,12.0,0.,12.0
1980-11-14 21:01:49.280 ,3,0,0.,12.0,0.,12.0,0.,12.0,0.,12.0
1980-11-14 21:02:01.280 ,3,0,0.,12.0,0.,12.0,0.,12.0,0.,12.0
1980-11-14 21:02:13.280 ,2,1,0.,12.0,0.,12.0,0.,12.0,0.,12.0
1980-11-14 21:02:25.280 ,2,1,0.,12.0,0.,12.0,0.,12.0,0.,12.0
1980-11-14 21:02:37.280 ,2,0,0.,12.0,0.,12.0,0.,12.0,0.,12.0
1980-11-14 21:02:49.280 ,2,0,0.,12.0,0.,12.0,0.,12.0,0.,12.0
1980-11-14 21:03:01.280 ,1,1,0.,12.0,0.,12.0,0.,12.0,0.,12.0
1980-11-14 21:03:13.280 ,1,1,0.,12.0,0.,12.0,0.,12.0,0.,12.0
1980-11-14 21:03:25.280 ,1,0,0.,12.0,0.,12.0,0.,12.0,0.,12.0
1980-11-14 21:03:37.280 ,1,0,0.,12.0,0.,12.0,0.,12.0,0.,12.0
1980-11-14 21:03:49.280 ,0,1,0.,12.0,0.,12.0,0.,12.0,0.,12.0
1980-11-14 21:04:01.280 ,0,1,0.,12.0,0.,12.0,0.,12.0,0.,12.0
1980-11-14 21:04:13.280 ,0,0,0.,12.0,0.,12.0,0.,12.0,0.,12.0
1980-11-14 21:04:25.280 ,0,0,0.,12.0,0.,12.0,0.,12.0,0.,12.0
1980-11-14 21:04:37.280 ,0,1,0.,12.0,0.,12.0,0.,12.0,0.,12.0
1980-11-14 21:04:49.280 ,0,1,0.,12.0,0.,12.0,0.,12.0,0.,12.0
1980-11-14 21:05:01.280 ,0,0,0.,12.0,0.,12.0,0.,12.0,0.,12.0
1980-11-14 21:05:13.280 ,0,0,0.,12.0,0.,12.0,0.,12.0,0.,12.0
1980-11-14 21:05:25.280 ,1,1,0.,12.0,0.,12.0,0.,12.0,0.,12.0
1980-11-14 21:05:37.280 ,1,1,0.,12.0,0.,12.0,0.,12.0,0.,12.0
1980-11-14 21:05:49.280 ,1,0,0.,12.0,0.,12.0,0.,12.0,0.,12.0
1980-11-14 21:06:01.280 ,1,0,0.,12.0,0.,12.0,0.,12.0,0.,12.0
1980-11-14 21:06:13.280 ,2,1,0.,12.0,0.,12.0,0.,12.0,0.,12.0
1980-11-14 21:06:25.280 ,2,1,0.,12.0,0.,12.0,0.,12.0,0.,12.0
1980-11-14 21:06:37.280 ,2,0,0.,12.0,0.,12.0,0.,12.0,0.,12.0
1980-11-14 21:06:49.280 ,2,0,0.,12.0,0.,12.0,0.,12.0,0.,12.0
1980-11-14 21:07:01.280 ,3,1,0.,12.0,0.,12.0,0.,12.0,0.,12.0
1980-11-14 21:07:13.280 ,3,1,0.,12.0,0.,12.0,0.,12.0,0.,12.0
1980-11-14 21:07:25.280 ,3,0,0.,12.0,0.,12.0,0.,12.0,0.,12.0
1980-11-14 21:07:37.280 ,3,0,0.,12.0,0.,12.0,0.,12.0,0.,12.0
1980-11-14 21:07:49.280 ,4,1,0.,12.0,0.,12.0,0.,12.0,0.,12.0
1980-11-14 21:08:01.280 ,4,1,0.,12.0,0.,12.0,0.,12.0,0.,12.0
1980-11-14 21:08:13.280 ,4,0,0.,12.0,0.,12.0,0.,12.0,0.,12.0
1980-11-14 21:08:25.280 ,4,0,0.,12.0,0.,12.0,0.,12.0,0.,12.0
1980-11-14 21:08:37.280 ,5,1,0.,12.0,0.,12.0,0.,12.0,0.,12.0
1980-11-14 21:08:49.280 ,5,1,0.,12.0,0.,12.0,0.,12.0,0.,12.0
1980-11-14 21:09:01.280 ,5,0,0.,12.0,0.,12.0,0.,12.0,0.,12.0
1980-11-14 21:09:13.280 ,5,0,0.,12.0,0.,12.0,0.,12.0,0.,12.0
1980-11-14 21:09:25.280 ,6,1,0.,12.0,0.,12.0,0.,12.0,0.,12.0
1980-11-14 21:09:37.280 ,6,1,0.,12.0,0.,12.0,0.,12.0,0.,12.0
1980-11-14 21:09:49.280 ,6,0,0.,12.0,0.,12.0,0.,12.0,0.,12.0
1980-11-14 21:10:01.280 ,6,0,0.,12.0,0.,12.0,0.,12.0,0.,12.0
1980-11-14 21:10:13.280 ,7,1,0.,12.0,0.,12.0,0.,12.0,0.,12.0
1980-11-14 21:10:25.280 ,7,1,0.,12.0,2.,12.0,0.,12.0,0.,12.0
1980-11-14 21:10:37.280 ,7,0,0.,12.0,2.,12.0,0.,12.0,0.,12.0
1980-11-14 21:10:49.280 ,7,0,0.,12.0,4.,12.0,0.,12.0,0.,12.0
1980-11-14 21:11:01.280 ,7,1,0.,12.0,1.,12.0,0.,12.0,0.,12.0
1980-11-14 21:11:13.280 ,7,1,0.,12.0,1.,12.0,0.,12.0,0.,12.0
1980-11-14 21:11:25.280 ,7,0,0.,12.0,2.,12.0,0.,12.0,0.,12.0
1980-11-14 21:11:37.280 ,7,0,0.,12.0,5.,12.0,0.,12.0,0.,12.0
1980-11-14 21:11:49.280 ,6,1,0.,12.0,7.,12.0,0.,12.0,0.,12.0
1980-11-14 21:12:01.280 ,6,1,0.,12.0,1.,12.0,0.,12.0,0.,12.0
1980-11-14 21:12:13.280 ,6,0,0.,12.0,0.,12.0,0.,12.0,0.,12.0
1980-11-14 21:12:25.280 ,6,0,0.,12.0,0.,12.0,0.,12.0,0.,12.0
1980-11-14 21:12:37.280 ,5,1,0.,12.0,0.,12.0,0.,12.0,0.,12.0
1980-11-14 21:12:49.280 ,5,1,0.,12.0,0.,12.0,0.,12.0,0.,12.0
1980-11-14 21:13:01.280 ,5,0,0.,12.0,0.,12.0,0.,12.0,0.,12.0
1980-11-14 21:13:13.280 ,5,0,0.,12.0,0.,12.0,0.,12.0,0.,12.0
1980-11-14 21:13:25.280 ,4,1,0.,12.0,0.,12.0,0.,12.0,0.,12.0
1980-11-14 21:13:37.280 ,4,1,0.,12.0,0.,12.0,0.,12.0,0.,12.0
1980-11-14 21:13:49.280 ,4,0,0.,12.0,0.,12.0,0.,12.0,0.,12.0
1980-11-14 21:14:01.280 ,4,0,0.,12.0,0.,12.0,0.,12.0,0.,12.0
1980-11-14 21:14:13.280 ,3,1,,0,,0,,0,,0
1980-11-14 21:14:25.280 ,3,1,0.,12.0,0.,12.0,0.,12.0,0.,12.0
1980-11-14 21:14:37.280 ,3,0,0.,12.0,0.,12.0,0.,12.0,0.,12.0
1980-11-14 21:14:49.280 ,3,0,0.,12.0,0.,12.0,0.,12.0,0.,12.0
1980-11-14 21:15:01.280 ,2,1,0.,12.0,0.,12.0,0.,12.0,0.,12.0
1980-11-14 21:15:13.280 ,2,1,0.,12.0,0.,12.0,0.,12.0,0.,12.0
1980-11-14 21:15:25.280 ,2,0,0.,12.0,0.,12.0,0.,12.0,0.,12.0
1980-11-14 21:15:37.280 ,2,0,0.,12.0,0.,12.0,0.,12.0,0.,12.0
1980-11-14 21:15:49.280 ,1,1,0.,12.0,0.,12.0,0.,12.0,0.,12.0
1980-11-14 21:16:01.280 ,1,1,0.,12.0,0.,12.0,0.,12.0,0.,12.0
1980-11-14 21:16:13.280 ,1,0,0.,12.0,0.,12.0,0.,12.0,0.,12.0
1980-11-14 21:16:25.280 ,1,0,0.,12.0,1.,12.0,0.,12.0,0.,12.0
1980-11-14 21:16:37.280 ,0,1,0.,12.0,0.,12.0,0.,12.0,0.,12.0
1980-11-14 21:16:49.280 ,0,1,0.,12.0,0.,12.0,0.,12.0,0.,12.0
1980-11-14 21:17:01.280 ,0,0,0.,12.0,0.,12.0,0.,12.0,0.,12.0
1980-11-14 21:17:13.280 ,0,0,0.,12.0,0.,12.0,0.,12.0,0.,12.0
1980-11-14 21:17:25.280 ,0,1,0.,12.0,0.,12.0,0.,12.0,0.,12.0
1980-11-14 21:17:37.280 ,0,1,0.,12.0,0.,12.0,0.,12.0,0.,12.0
1980-11-14 21:17:49.280 ,0,0,0.,12.0,0.,12.0,0.,12.0,0.,12.0
1980-11-14 21:18:01.280 ,0,0,0.,12.0,0.,12.0,0.,12.0,0.,12.0
1980-11-14 21:18:13.280 ,1,1,0.,12.0,1.,12.0,0.,12.0,0.,12.0
1980-11-14 21:18:25.280 ,1,1,0.,12.0,0.,12.0,0.,12.0,0.,12.0
1980-11-14 21:18:37.280 ,1,0,0.,12.0,0.,12.0,0.,12.0,0.,12.0
1980-11-14 21:18:49.280 ,1,0,0.,12.0,0.,12.0,0.,12.0,0.,12.0
1980-11-14 21:19:01.280 ,2,1,0.,12.0,0.,12.0,0.,12.0,0.,12.0
1980-11-14 21:19:13.280 ,2,1,0.,12.0,0.,12.0,0.,12.0,0.,12.0
1980-11-14 21:19:25.280 ,2,0,0.,12.0,0.,12.0,0.,12.0,0.,12.0
1980-11-14 21:19:37.280 ,2,0,0.,12.0,0.,12.0,0.,12.0,0.,12.0
1980-11-14 21:20:37.280 ,0,0,0.,12.0,0.,12.0,0.,12.0,0.,12.0
1980-11-14 21:20:49.280 ,0,0,0.,12.0,0.,12.0,0.,12.0,0.,12.0
1980-11-14 21:21:01.280 ,0,0,0.,12.0,0.,12.0,0.,12.0,0.,12.0
1980-11-14 21:21:13.280 ,0,0,0.,12.0,0.,12.0,0.,12.0,0.,12.0
1980-11-14 21:21:25.280 ,5,1,0.,12.0,0.,12.0,0.,12.0,0.,12.0
1980-11-14 21:21:37.280 ,5,1,0.,12.0,0.,12.0,0.,12.0,0.,12.0
1980-11-14 21:21:49.280 ,5,0,0.,12.0,0.,12.0,0.,12.0,0.,12.0
1980-11-14 21:22:01.280 ,5,0,0.,12.0,0.,12.0,0.,12.0,1.,12.0
1980-11-14 21:22:13.280 ,6,1,0.,12.0,0.,12.0,0.,12.0,0.,12.0
1980-11-14 21:22:25.280 ,6,1,0.,12.0,0.,12.0,0.,12.0,0.,12.0
1980-11-14 21:22:37.280 ,6,0,0.,12.0,0.,12.0,0.,12.0,0.,12.0
1980-11-14 21:22:49.280 ,6,0,0.,12.0,0.,12.0,0.,12.0,0.,12.0
1980-11-14 21:23:01.280 ,7,1,0.,12.0,0.,12.0,0.,12.0,0.,12.0
1980-11-14 21:23:13.280 ,7,1,0.,12.0,0.,12.0,0.,12.0,0.,12.0
1980-11-14 21:23:25.280 ,7,0,0.,12.0,5.,12.0,0.,12.0,0.,12.0
1980-11-14 21:23:37.280 ,7,0,0.,12.0,5.,12.0,0.,12.0,0.,12.0
1980-11-14 21:23:49.280 ,7,1,0.,12.0,7.,12.0,0.,12.0,0.,12.0
1980-11-14 21:24:01.280 ,7,1,0.,12.0,5.,12.0,0.,12.0,0.,12.0
1980-11-14 21:24:13.280 ,7,0,0.,12.0,2.,12.0,0.,12.0,0.,12.0
1980-11-14 21:24:25.280 ,7,0,0.,12.0,2.,12.0,0.,12.0,0.,12.0
1980-11-14 21:24:37.280 ,6,1,0.,12.0,2.,12.0,0.,12.0,0.,12.0
1980-11-14 21:24:49.280 ,6,1,0.,12.0,2.,12.0,0.,12.0,0.,12.0
1980-11-14 21:25:01.280 ,6,0,0.,12.0,0.,12.0,0.,12.0,0.,12.0
1980-11-14 21:25:13.280 ,6,0,0.,12.0,0.,12.0,0.,12.0,0.,12.0
1980-11-14 21:25:25.280 ,5,1,0.,12.0,0.,12.0,0.,12.0,0.,12.0
1980-11-14 21:25:37.280 ,5,1,0.,12.0,0.,12.0,0.,12.0,0.,12.0
1980-11-14 21:25:49.280 ,5,0,0.,12.0,0.,12.0,0.,12.0,0.,12.0
1980-11-14 21:26:01.280 ,5,0,0.,12.0,0.,12.0,0.,12.0,0.,12.0
1980-11-14 21:26:13.280 ,4,1,0.,12.0,0.,12.0,0.,12.0,0.,12.0
1980-11-14 21:26:25.280 ,4,1,0.,12.0,0.,12.0,0.,12.0,0.,12.0
1980-11-14 21:26:37.280 ,4,0,0.,12.0,0.,12.0,0.,12.0,0.,12.0
1980-11-14 21:26:49.280 ,4,0,0.,12.0,0.,12.0,0.,12.0,0.,12.0
1980-11-14 21:27:01.280 ,3,1,0.,12.0,0.,12.0,0.,12.0,0.,12.0
1980-11-14 21:27:13.280 ,3,1,0.,12.0,0.,12.0,0.,12.0,0.,12.0
1980-11-14 21:27:25.280 ,3,0,0.,12.0,0.,12.0,0.,12.0,0.,12.0
1980-11-14 21:27:37.280 ,3,0,0.,12.0,0.,12.0,0.,12.0,0.,12.0
1980-11-14 21:27:49.280 ,2,1,0.,12.0,0.,12.0,0.,12.0,0.,12.0
1980-11-14 21:28:01.280 ,2,1,0.,12.0,0.,12.0,0.,12.0,0.,12.0
1980-11-14 21:28:13.280 ,2,0,0.,12.0,0.,12.0,0.,12.0,0.,12.0
1980-11-14 21:28:25.280 ,2,0,0.,12.0,0.,12.0,0.,12.0,0.,12.0
1980-11-14 21:28:37.280 ,1,1,0.,12.0,0.,12.0,0.,12.0,0.,12.0
1980-11-14 21:28:49.280 ,1,1,0.,12.0,0.,12.0,0.,12.0,0.,12.0
1980-11-14 21:29:01.280 ,1,0,0.,12.0,0.,12.0,0.,12.0,0.,12.0
1980-11-14 21:29:13.280 ,1,0,0.,12.0,0.,12.0,0.,12.0,0.,12.0
1980-11-14 21:29:25.280 ,0,1,0.,12.0,0.,12.0,0.,12.0,0.,12.0
1980-11-14 21:29:37.280 ,0,1,0.,12.0,0.,12.0,0.,12.0,0.,12.0
1980-11-14 21:29:49.280 ,0,0,0.,12.0,0.,12.0,0.,12.0,0.,12.0
1980-11-14 21:30:01.280 ,0,0,0.,12.0,0.,12.0,0.,12.0,0.,12.0
1980-11-14 21:30:13.280 ,0,1,0.,12.0,0.,12.0,0.,12.0,0.,12.0
1980-11-14 21:30:25.280 ,0,1,0.,12.0,0.,12.0,0.,12.0,0.,12.0
1980-11-14 21:30:37.280 ,0,0,0.,12.0,0.,12.0,0.,12.0,0.,12.0
1980-11-14 21:30:49.280 ,0,0,0.,12.0,0.,12.0,0.,12.0,0.,12.0
1980-11-14 21:31:01.280 ,1,1,0.,12.0,0.,12.0,0.,12.0,0.,12.0
1980-11-14 21:31:13.280 ,1,1,0.,12.0,0.,12.0,0.,12.0,0.,12.0
1980-11-14 21:31:25.280 ,1,0,0.,12.0,0.,12.0,0.,12.0,0.,12.0
1980-11-14 21:31:37.280 ,1,0,0.,12.0,0.,12.0,0.,12.0,0.,12.0
1980-11-14 21:31:49.280 ,2,1,0.,12.0,0.,12.0,0.,12.0,0.,12.0
1980-11-14 21:32:01.280 ,2,1,0.,12.0,0.,12.0,0.,12.0,0.,12.0
1980-11-14 21:32:13.280 ,2,0,0.,12.0,0.,12.0,0.,12.0,0.,12.0
1980-11-14 21:32:25.280 ,2,0,0.,12.0,0.,12.0,0.,12.0,0.,12.0
1980-11-14 21:32:37.280 ,3,1,0.,12.0,0.,12.0,0.,12.0,0.,12.0
1980-11-14 21:32:49.280 ,3,1,0.,12.0,0.,12.0,0.,12.0,0.,12.0
1980-11-14 21:33:01.280 ,3,0,0.,12.0,0.,12.0,0.,12.0,0.,12.0
1980-11-14 21:33:13.280 ,3,0,0.,12.0,0.,12.0,0.,12.0,0.,12.0
1980-11-14 21:33:25.280 ,4,1,0.,12.0,0.,12.0,0.,12.0,0.,12.0
1980-11-14 21:33:37.280 ,4,1,0.,12.0,0.,12.0,0.,12.0,0.,12.0
1980-11-14 21:33:49.280 ,4,0,0.,12.0,0.,12.0,0.,12.0,0.,12.0
1980-11-14 21:34:01.280 ,4,0,0.,12.0,0.,12.0,0.,12.0,0.,12.0
1980-11-14 21:34:13.280 ,0,0,0.,12.0,0.,12.0,0.,12.0,0.,12.0
1980-11-14 21:34:25.280 ,0,0,0.,12.0,0.,12.0,0.,12.0,0.,12.0
1980-11-14 21:34:37.280 ,0,0,,0,,0,,0,,0
1980-11-14 21:34:49.280 ,0,0,,0,,0,,0,,0
1980-11-14 21:35:49.280 ,0,0,0.,12.0,0.,12.0,0.,12.0,0.,12.0
1980-11-14 21:36:01.280 ,0,0,0.,12.0,4.,12.0,0.,12.0,0.,12.0
1980-11-14 21:36:13.280 ,0,0,0.,12.0,2.,12.0,0.,12.0,0.,12.0
1980-11-14 21:36:25.280 ,0,0,0.,12.0,4.,12.0,0.,12.0,0.,12.0
1980-11-14 21:36:37.280 ,7,1,0.,12.0,5.,12.0,0.,12.0,0.,12.0
1980-11-14 21:36:49.280 ,7,1,0.,12.0,4.,12.0,0.,12.0,0.,12.0
1980-11-14 21:37:01.280 ,7,0,0.,12.0,6.,12.0,0.,12.0,0.,12.0
1980-11-14 21:37:13.280 ,7,0,0.,12.0,1.,12.0,0.,12.0,0.,12.0
1980-11-14 21:37:25.280 ,6,1,0.,12.0,3.,12.0,0.,12.0,0.,12.0
1980-11-14 21:37:37.280 ,6,1,0.,12.0,0.,12.0,0.,12.0,0.,12.0
1980-11-14 21:37:49.280 ,6,0,0.,12.0,0.,12.0,0.,12.0,0.,12.0
1980-11-14 21:38:01.280 ,6,0,0.,12.0,0.,12.0,0.,12.0,0.,12.0
1980-11-14 21:38:13.280 ,5,1,0.,12.0,0.,12.0,0.,12.0,0.,12.0
1980-11-14 21:38:25.280 ,5,1,0.,12.0,0.,12.0,0.,12.0,0.,12.0
1980-11-14 21:38:37.280 ,5,0,0.,12.0,0.,12.0,0.,12.0,0.,12.0
1980-11-14 21:38:49.280 ,5,0,0.,12.0,0.,12.0,0.,12.0,0.,12.0
1980-11-14 21:39:01.280 ,4,1,0.,12.0,0.,12.0,0.,12.0,0.,12.0
1980-11-14 21:39:13.280 ,4,1,0.,12.0,0.,12.0,0.,12.0,0.,12.0
1980-11-14 21:39:25.280 ,4,0,0.,12.0,0.,12.0,0.,12.0,0.,12.0
1980-11-14 21:39:37.280 ,4,0,0.,12.0,0.,12.0,0.,12.0,0.,12.0
1980-11-14 21:39:49.280 ,3,1,0.,12.0,0.,12.0,0.,12.0,0.,12.0
1980-11-14 21:40:01.280 ,3,1,0.,12.0,0.,12.0,0.,12.0,0.,12.0
1980-11-14 21:40:13.280 ,3,0,0.,12.0,0.,12.0,0.,12.0,0.,12.0
1980-11-14 21:40:25.280 ,3,0,0.,12.0,0.,12.0,0.,12.0,0.,12.0
1980-11-14 21:40:37.280 ,2,1,0.,12.0,0.,12.0,0.,12.0,0.,12.0
1980-11-14 21:40:49.280 ,2,1,0.,12.0,0.,12.0,0.,12.0,0.,12.0
1980-11-14 21:41:01.280 ,2,0,0.,12.0,0.,12.0,0.,12.0,0.,12.0
1980-11-14 21:41:13.280 ,2,0,0.,12.0,0.,12.0,0.,12.0,0.,12.0
1980-11-14 21:41:25.280 ,1,1,0.,12.0,0.,12.0,0.,12.0,0.,12.0
1980-11-14 21:41:37.280 ,1,1,0.,12.0,0.,12.0,0.,12.0,0.,12.0
1980-11-14 21:41:49.280 ,1,0,0.,12.0,0.,12.0,0.,12.0,0.,12.0
1980-11-14 21:42:01.280 ,1,0,0.,12.0,0.,12.0,0.,12.0,0.,12.0
1980-11-14 21:42:13.280 ,0,1,0.,12.0,0.,12.0,0.,12.0,0.,12.0
1980-11-14 21:42:25.280 ,0,1,0.,12.0,0.,12.0,0.,12.0,0.,12.0
1980-11-14 21:42:37.280 ,0,0,0.,12.0,0.,12.0,0.,12.0,0.,12.0
1980-11-14 21:42:49.280 ,0,0,0.,12.0,0.,12.0,0.,12.0,0.,12.0
1980-11-14 21:43:01.280 ,0,1,0.,12.0,0.,12.0,0.,12.0,0.,12.0
1980-11-14 21:43:13.280 ,0,1,0.,12.0,0.,12.0,0.,12.0,0.,12.0
1980-11-14 21:43:25.280 ,0,0,0.,12.0,0.,12.0,0.,12.0,0.,12.0
1980-11-14 21:43:37.280 ,0,0,0.,12.0,0.,12.0,0.,12.0,0.,12.0
1980-11-14 21:43:49.280 ,1,1,0.,12.0,0.,12.0,0.,12.0,0.,12.0
1980-11-14 21:44:01.280 ,1,1,0.,12.0,0.,12.0,0.,12.0,0.,12.0
1980-11-14 21:44:13.280 ,1,0,0.,12.0,0.,12.0,0.,12.0,0.,12.0
1980-11-14 21:44:25.280 ,1,0,0.,12.0,0.,12.0,0.,12.0,0.,12.0
1980-11-14 21:44:37.280 ,2,1,0.,12.0,0.,12.0,0.,12.0,0.,12.0
1980-11-14 21:44:49.280 ,2,1,0.,12.0,0.,12.0,0.,12.0,0.,12.0
1980-11-14 21:45:01.280 ,2,0,0.,12.0,0.,12.0,0.,12.0,0.,12.0
1980-11-14 21:45:13.280 ,2,0,0.,12.0,0.,12.0,0.,12.0,0.,12.0
1980-11-14 21:45:25.280 ,3,1,0.,12.0,0.,12.0,0.,12.0,0.,12.0
1980-11-14 21:45:37.280 ,3,1,0.,12.0,0.,12.0,0.,12.0,0.,12.0
1980-11-14 21:45:49.280 ,3,0,0.,12.0,0.,12.0,0.,12.0,0.,12.0
1980-11-14 21:46:01.280 ,3,0,0.,12.0,0.,12.0,0.,12.0,0.,12.0
1980-11-14 21:46:13.280 ,4,1,0.,12.0,0.,12.0,0.,12.0,0.,12.0
1980-11-14 21:46:25.280 ,4,1,0.,12.0,0.,12.0,0.,12.0,0.,12.0
1980-11-14 21:46:37.280 ,4,0,0.,12.0,0.,12.0,0.,12.0,0.,12.0
1980-11-14 21:46:49.280 ,4,0,0.,12.0,0.,12.0,0.,12.0,0.,12.0
1980-11-14 21:47:01.280 ,5,1,0.,12.0,0.,12.0,0.,12.0,0.,12.0
1980-11-14 21:47:13.280 ,5,1,0.,12.0,0.,12.0,0.,12.0,0.,12.0
1980-11-14 21:47:25.280 ,5,0,0.,12.0,0.,12.0,0.,12.0,0.,12.0
1980-11-14 21:47:37.280 ,5,0,0.,12.0,0.,12.0,0.,12.0,0.,12.0
1980-11-14 21:47:49.280 ,6,1,0.,12.0,0.,12.0,0.,12.0,0.,12.0
1980-11-14 21:48:01.280 ,6,1,0.,12.0,0.,12.0,0.,12.0,0.,12.0
1980-11-14 21:48:13.280 ,6,0,0.,12.0,0.,12.0,0.,12.0,0.,12.0
1980-11-14 21:48:25.280 ,6,0,0.,12.0,0.,12.0,0.,12.0,0.,12.0
1980-11-14 21:48:37.280 ,7,1,0.,12.0,0.,12.0,0.,12.0,0.,12.0
1980-11-14 21:48:49.280 ,7,1,0.,12.0,1.,12.0,0.,12.0,0.,12.0
1980-11-14 21:49:01.280 ,7,0,0.,12.0,1.,12.0,0.,12.0,0.,12.0
1980-11-14 21:49:13.280 ,7,0,0.,12.0,3.,12.0,0.,12.0,0.,12.0
1980-11-14 21:49:25.280 ,7,1,0.,12.0,7.,12.0,0.,12.0,0.,12.0
1980-11-14 21:49:37.280 ,7,1,0.,12.0,3.,12.0,0.,12.0,0.,12.0
1980-11-14 21:49:49.280 ,7,0,0.,12.0,1.,12.0,0.,12.0,0.,12.0
1980-11-14 21:50:01.280 ,7,0,0.,12.0,3.,12.0,0.,12.0,0.,12.0
1980-11-14 21:50:13.280 ,6,1,0.,12.0,7.,12.0,0.,12.0,0.,12.0
1980-11-14 21:50:25.280 ,6,1,0.,12.0,2.,12.0,0.,12.0,0.,12.0
1980-11-14 21:50:37.280 ,6,0,0.,12.0,0.,12.0,0.,12.0,0.,12.0
1980-11-14 21:50:49.280 ,6,0,0.,12.0,0.,12.0,0.,12.0,0.,12.0
1980-11-14 21:51:01.280 ,5,1,0.,12.0,0.,12.0,0.,12.0,0.,12.0
1980-11-14 21:51:13.280 ,5,1,0.,12.0,0.,12.0,0.,12.0,0.,12.0
1980-11-14 21:51:25.280 ,5,0,0.,12.0,0.,12.0,0.,12.0,0.,12.0
1980-11-14 21:51:37.280 ,5,0,0.,12.0,0.,12.0,0.,12.0,0.,12.0
1980-11-14 21:51:49.280 ,4,1,0.,12.0,0.,12.0,0.,12.0,0.,12.0
1980-11-14 21:52:01.280 ,4,1,0.,12.0,0.,12.0,0.,12.0,0.,12.0
1980-11-14 21:52:13.280 ,4,0,0.,12.0,0.,12.0,0.,12.0,0.,12.0
1980-11-14 21:52:25.280 ,4,0,0.,12.0,0.,12.0,0.,12.0,0.,12.0
1980-11-14 21:52:37.280 ,3,1,0.,12.0,0.,12.0,0.,12.0,0.,12.0
1980-11-14 21:52:49.280 ,3,1,0.,12.0,0.,12.0,0.,12.0,0.,12.0
1980-11-14 21:53:01.280 ,3,0,0.,12.0,0.,12.0,0.,12.0,0.,12.0
1980-11-14 21:53:13.280 ,3,0,0.,12.0,0.,12.0,0.,12.0,0.,12.0
1980-11-14 21:53:25.280 ,2,1,0.,12.0,0.,12.0,0.,12.0,0.,12.0
1980-11-14 21:53:37.280 ,2,1,0.,12.0,0.,12.0,0.,12.0,0.,12.0
1980-11-14 21:53:49.280 ,2,0,0.,12.0,0.,12.0,0.,12.0,0.,12.0
1980-11-14 21:54:01.280 ,2,0,0.,12.0,0.,12.0,0.,12.0,0.,12.0
1980-11-14 21:54:13.280 ,1,1,0.,12.0,0.,12.0,0.,12.0,0.,12.0
1980-11-14 21:54:25.280 ,1,1,0.,12.0,0.,12.0,0.,12.0,0.,12.0
1980-11-14 21:54:37.280 ,1,0,0.,12.0,0.,12.0,0.,12.0,0.,12.0
1980-11-14 21:54:49.280 ,1,0,0.,12.0,0.,12.0,0.,12.0,0.,12.0
1980-11-14 21:55:01.280 ,0,1,0.,12.0,0.,12.0,0.,12.0,0.,12.0
1980-11-14 21:55:13.280 ,0,1,0.,12.0,0.,12.0,0.,12.0,0.,12.0
1980-11-14 21:55:25.280 ,0,0,0.,12.0,0.,12.0,0.,12.0,0.,12.0
1980-11-14 21:55:37.280 ,0,0,0.,12.0,0.,12.0,0.,12.0,0.,12.0
1980-11-14 21:55:49.280 ,0,1,0.,12.0,0.,12.0,0.,12.0,0.,12.0
1980-11-14 21:56:01.280 ,0,1,0.,12.0,0.,12.0,0.,12.0,0.,12.0
1980-11-14 21:56:13.280 ,0,0,0.,12.0,0.,12.0,0.,12.0,0.,12.0
1980-11-14 21:56:25.280 ,0,0,0.,12.0,0.,12.0,0.,12.0,0.,12.0
1980-11-14 21:56:37.280 ,1,1,0.,12.0,0.,12.0,0.,12.0,0.,12.0
1980-11-14 21:56:49.280 ,1,1,0.,12.0,0.,12.0,0.,12.0,0.,12.0
1980-11-14 21:57:01.280 ,1,0,0.,12.0,0.,12.0,0.,12.0,0.,12.0
1980-11-14 21:57:13.280 ,1,0,0.,12.0,0.,12.0,0.,12.0,0.,12.0
1980-11-14 21:57:25.280 ,2,1,0.,12.0,0.,12.0,0.,12.0,1.,12.0
1980-11-14 21:57:37.280 ,2,1,0.,12.0,0.,12.0,0.,12.0,0.,12.0
1980-11-14 21:57:49.280 ,2,0,0.,12.0,0.,12.0,0.,12.0,0.,12.0
1980-11-14 21:58:01.280 ,2,0,0.,12.0,0.,12.0,0.,12.0,0.,12.0
1980-11-14 21:58:13.280 ,3,1,0.,12.0,0.,12.0,0.,12.0,0.,12.0
1980-11-14 21:58:25.280 ,3,1,0.,12.0,0.,12.0,0.,12.0,0.,12.0
1980-11-14 21:58:37.280 ,3,0,0.,12.0,0.,12.0,0.,12.0,0.,12.0
1980-11-14 21:58:49.280 ,3,0,0.,12.0,0.,12.0,0.,12.0,0.,12.0
1980-11-14 21:59:01.280 ,4,1,0.,12.0,0.,12.0,0.,12.0,0.,12.0
1980-11-14 21:59:13.280 ,4,1,0.,12.0,0.,12.0,0.,12.0,0.,12.0
1980-11-14 21:59:25.280 ,4,0,0.,12.0,0.,12.0,0.,12.0,0.,12.0
1980-11-14 21:59:37.280 ,4,0,0.,12.0,0.,12.0,0.,12.0,0.,12.0
1980-11-14 21:59:49.280 ,5,1,0.,12.0,0.,12.0,0.,12.0,0.,12.0
1980-11-14 22:00:01.280 ,5,1,0.,12.0,0.,12.0,0.,12.0,0.,12.0
1980-11-14 22:00:13.280 ,5,0,0.,12.0,0.,12.0,0.,12.0,0.,12.0
1980-11-14 22:00:25.280 ,5,0,0.,12.0,0.,12.0,0.,12.0,0.,12.0
1980-11-14 22:00:37.280 ,6,1,0.,12.0,0.,12.0,0.,12.0,0.,12.0
1980-11-14 22:00:49.280 ,6,1,0.,12.0,0.,12.0,0.,12.0,0.,12.0
1980-11-14 22:01:01.280 ,6,0,0.,12.0,0.,12.0,0.,12.0,0.,12.0
1980-11-14 22:01:13.280 ,6,0,0.,12.0,0.,12.0,0.,12.0,0.,12.0
1980-11-14 22:01:25.280 ,7,1,0.,12.0,0.,12.0,0.,12.0,0.,12.0
1980-11-14 22:01:37.280 ,7,1,0.,12.0,1.,12.0,0.,12.0,0.,12.0
1980-11-14 22:01:49.280 ,7,0,0.,12.0,7.,12.0,0.,12.0,0.,12.0
1980-11-14 22:02:01.280 ,7,0,0.,12.0,3.,12.0,0.,12.0,0.,12.0
1980-11-14 22:02:13.280 ,7,1,0.,12.0,2.,12.0,0.,12.0,0.,12.0
1980-11-14 22:02:25.280 ,7,1,0.,12.0,5.,12.0,0.,12.0,0.,12.0
1980-11-14 22:02:37.280 ,7,0,0.,12.0,2.,12.0,0.,12.0,0.,12.0
1980-11-14 22:02:49.280 ,7,0,0.,12.0,1.,12.0,0.,12.0,0.,12.0
1980-11-14 22:03:01.280 ,6,1,0.,12.0,8.,12.0,0.,12.0,0.,12.0
1980-11-14 22:03:13.280 ,6,1,0.,12.0,1.,12.0,0.,12.0,0.,12.0
1980-11-14 22:03:25.280 ,6,0,0.,12.0,0.,12.0,0.,12.0,0.,12.0
1980-11-14 22:03:37.280 ,6,0,0.,12.0,0.,12.0,0.,12.0,0.,12.0
1980-11-14 22:03:49.280 ,5,1,0.,12.0,0.,12.0,0.,12.0,0.,12.0
1980-11-14 22:04:01.280 ,5,1,0.,12.0,0.,12.0,0.,12.0,0.,12.0
1980-11-14 22:04:13.280 ,5,0,0.,12.0,0.,12.0,0.,12.0,0.,12.0
1980-11-14 22:04:25.280 ,5,0,0.,12.0,0.,12.0,0.,12.0,0.,12.0
1980-11-14 22:04:37.280 ,4,1,0.,12.0,0.,12.0,0.,12.0,0.,12.0
1980-11-14 22:04:49.280 ,4,1,0.,12.0,0.,12.0,0.,12.0,0.,12.0
1980-11-14 22:05:01.280 ,4,0,0.,12.0,0.,12.0,0.,12.0,0.,12.0
1980-11-14 22:05:13.280 ,4,0,0.,12.0,0.,12.0,0.,12.0,0.,12.0
1980-11-14 22:05:25.280 ,3,1,0.,12.0,0.,12.0,0.,12.0,0.,12.0
1980-11-14 22:05:37.280 ,3,1,0.,12.0,0.,12.0,0.,12.0,0.,12.0
1980-11-14 22:05:49.280 ,3,0,0.,12.0,0.,12.0,0.,12.0,0.,12.0
1980-11-14 22:06:01.280 ,3,0,0.,12.0,0.,12.0,0.,12.0,0.,12.0
1980-11-14 22:06:13.280 ,2,1,0.,12.0,0.,12.0,0.,12.0,0.,12.0
1980-11-14 22:06:25.280 ,2,1,0.,12.0,0.,12.0,0.,12.0,0.,12.0
1980-11-14 22:06:37.280 ,2,0,0.,12.0,0.,12.0,0.,12.0,0.,12.0
1980-11-14 22:06:49.280 ,2,0,0.,12.0,0.,12.0,0.,12.0,0.,12.0
1980-11-14 22:07:01.280 ,1,1,0.,12.0,0.,12.0,0.,12.0,0.,12.0
1980-11-14 22:07:13.280 ,1,1,0.,12.0,0.,12.0,0.,12.0,0.,12.0
1980-11-14 22:07:25.280 ,1,0,0.,12.0,0.,12.0,0.,12.0,0.,12.0
1980-11-14 22:07:37.280 ,1,0,0.,12.0,0.,12.0,0.,12.0,0.,12.0
1980-11-14 22:07:49.280 ,0,1,0.,12.0,0.,12.0,0.,12.0,0.,12.0
1980-11-14 22:08:01.280 ,0,1,0.,12.0,0.,12.0,0.,12.0,0.,12.0
1980-11-14 22:08:13.280 ,0,0,0.,12.0,0.,12.0,0.,12.0,0.,12.0
1980-11-14 22:08:25.280 ,0,0,0.,12.0,0.,12.0,0.,12.0,0.,12.0
1980-11-14 22:08:37.280 ,0,1,0.,12.0,0.,12.0,0.,12.0,0.,12.0
1980-11-14 22:08:49.280 ,0,1,0.,12.0,0.,12.0,0.,12.0,0.,12.0
1980-11-14 22:09:01.280 ,0,0,0.,12.0,0.,12.0,0.,12.0,0.,12.0
1980-11-14 22:09:13.280 ,0,0,0.,12.0,0.,12.0,0.,12.0,0.,12.0
1980-11-14 22:09:25.280 ,1,1,0.,12.0,0.,12.0,0.,12.0,0.,12.0
1980-11-14 22:09:37.280 ,1,1,0.,12.0,0.,12.0,0.,12.0,0.,12.0
1980-11-14 22:09:49.280 ,1,0,0.,12.0,0.,12.0,0.,12.0,0.,12.0
1980-11-14 22:10:01.280 ,1,0,0.,12.0,0.,12.0,0.,12.0,0.,12.0
1980-11-14 22:10:13.280 ,2,1,0.,12.0,0.,12.0,0.,12.0,0.,12.0
1980-11-14 22:10:25.280 ,2,1,0.,12.0,0.,12.0,0.,12.0,0.,12.0
1980-11-14 22:10:37.280 ,2,0,0.,12.0,0.,12.0,0.,12.0,0.,12.0
1980-11-14 22:10:49.280 ,2,0,0.,12.0,0.,12.0,0.,12.0,0.,12.0
1980-11-14 22:11:01.280 ,3,1,0.,12.0,0.,12.0,0.,12.0,0.,12.0
1980-11-14 22:11:13.280 ,3,1,0.,12.0,0.,12.0,0.,12.0,0.,12.0
1980-11-14 22:11:25.280 ,3,0,0.,12.0,0.,12.0,0.,12.0,0.,12.0
1980-11-14 22:11:37.280 ,3,0,0.,12.0,0.,12.0,0.,12.0,0.,12.0
1980-11-14 22:11:49.280 ,4,1,0.,12.0,0.,12.0,0.,12.0,0.,12.0
1980-11-14 22:12:01.280 ,4,1,0.,12.0,0.,12.0,0.,12.0,0.,12.0
1980-11-14 22:12:13.280 ,4,0,0.,12.0,0.,12.0,0.,12.0,0.,12.0
1980-11-14 22:12:25.280 ,4,0,0.,12.0,0.,12.0,0.,12.0,0.,12.0
1980-11-14 22:12:37.280 ,5,1,0.,12.0,0.,12.0,0.,12.0,0.,12.0
1980-11-14 22:12:49.280 ,5,1,0.,12.0,0.,12.0,0.,12.0,0.,12.0
1980-11-14 22:13:01.280 ,5,0,0.,12.0,0.,12.0,0.,12.0,0.,12.0
1980-11-14 22:13:13.280 ,5,0,0.,12.0,0.,12.0,0.,12.0,0.,12.0
1980-11-14 22:13:25.280 ,6,1,0.,12.0,0.,12.0,0.,12.0,0.,12.0
1980-11-14 22:13:37.280 ,6,1,0.,12.0,0.,12.0,0.,12.0,0.,12.0
1980-11-14 22:13:49.280 ,6,0,0.,12.0,0.,12.0,0.,12.0,0.,12.0
1980-11-14 22:14:01.280 ,6,0,0.,12.0,0.,12.0,0.,12.0,0.,12.0
1980-11-14 22:14:13.280 ,7,1,0.,12.0,0.,12.0,0.,12.0,0.,12.0
1980-11-14 22:14:25.280 ,7,1,0.,12.0,2.,12.0,0.,12.0,0.,12.0
1980-11-14 22:14:37.280 ,7,0,0.,12.0,3.,12.0,0.,12.0,0.,12.0
1980-11-14 22:14:49.280 ,7,0,0.,12.0,4.,12.0,0.,12.0,0.,12.0
1980-11-14 22:15:01.280 ,7,1,0.,12.0,4.,12.0,0.,12.0,0.,12.0
1980-11-14 22:15:13.280 ,7,1,0.,12.0,4.,12.0,0.,12.0,0.,12.0
1980-11-14 22:15:25.280 ,7,0,0.,12.0,3.,12.0,0.,12.0,0.,12.0
1980-11-14 22:15:37.280 ,7,0,0.,12.0,6.,12.0,0.,12.0,0.,12.0
1980-11-14 22:15:49.280 ,6,1,0.,12.0,6.,12.0,0.,12.0,0.,12.0
1980-11-14 22:16:01.280 ,6,1,0.,12.0,1.,12.0,0.,12.0,0.,12.0
1980-11-14 22:16:13.280 ,6,0,0.,12.0,0.,12.0,0.,12.0,0.,12.0
1980-11-14 22:16:25.280 ,6,0,0.,12.0,0.,12.0,0.,12.0,0.,12.0
1980-11-14 22:16:37.280 ,5,1,0.,12.0,0.,12.0,0.,12.0,0.,12.0
1980-11-14 22:16:49.280 ,5,1,0.,12.0,0.,12.0,0.,12.0,0.,12.0
1980-11-14 22:17:01.280 ,5,0,0.,12.0,0.,12.0,0.,12.0,0.,12.0
1980-11-14 22:17:13.280 ,5,0,0.,12.0,0.,12.0,0.,12.0,0.,12.0
1980-11-14 22:17:25.280 ,4,1,0.,12.0,0.,12.0,0.,12.0,0.,12.0
1980-11-14 22:17:37.280 ,4,1,0.,12.0,0.,12.0,0.,12.0,0.,12.0
1980-11-14 22:17:49.280 ,4,0,0.,12.0,0.,12.0,0.,12.0,0.,12.0
1980-11-14 22:18:01.280 ,4,0,0.,12.0,0.,12.0,0.,12.0,0.,12.0
1980-11-14 22:18:13.280 ,3,1,0.,12.0,0.,12.0,0.,12.0,0.,12.0
1980-11-14 22:18:25.280 ,3,1,0.,12.0,0.,12.0,0.,12.0,0.,12.0
1980-11-14 22:18:37.280 ,3,0,0.,12.0,0.,12.0,0.,12.0,0.,12.0
1980-11-14 22:18:49.280 ,3,0,0.,12.0,0.,12.0,0.,12.0,0.,12.0
1980-11-14 22:19:01.280 ,2,1,0.,12.0,0.,12.0,0.,12.0,0.,12.0